Find Kuiper-00136

NORAD ID: 65962 Int'l Des: 2025-228 Owner: KUIP Country: US Constellation: amazon-leo operational
LEOCIRCULAR

現在のビュー

3D地球を読み込み中...

About Kuiper-00136

Kuiper-00136 (NORAD 65962) is a amazon-leo constellation satellite launched Oct 14, 2025 by KUIP of US. It operates in LEO, CIRCULAR orbit with a mass of 490.00 kg.

次回通過

Passes for default location (London). Set your location on the main map for personalized predictions.

高度履歴

Loading altitude history...

軌道要素

1 65962U 25228R 26263.26216810 .00001153 00000-0 18005-3 0 9999
2 65962 51.9008 207.7519 0000710 60.7839 299.3194 14.79966274 52217
Epoch: Sep 20, 2026 • Age: 26 hours

現在のステータス

高度 634.3 km
遠地点 / 近地点 N/A
速度 7.55 km/s
衛星直下点 48.33°N, 135.71°E
打ち上げ日 Oct 14, 2025
運用期間 0.9 years
タイプ internet

技術仕様

分類 Payload
質量 490.00 kg
形状 ? Box + 2 pan
製造者 KUIP
バスタイプ Kuiper
フェーズステータス In Orbit
所有者/国 KUIP/US

Most Searched